User: anonymous
Location: Chenango Forks
(42.2242°N, 75.8278°W)
Time: 11:29:15
(UTC-04:00)
Language:

Coronas F rocket - Orbit

View from above orbital plane
View from above orbital plane
View from above satellite
View from above satellite

Ground track
Ground track

The orbit data is extracted from the following two-line orbital elements,

1 26874U 01032B   14203.13147010  .00004081  00000-0  64658-4 0  7310
2 26874 082.4750 306.6744 0013551 285.4434 074.5321 15.52941032726728
Epoch (UTC): 22 July 2014 03:09:19
Eccentricity: 0.0013551
inclination: 82.4750°
perigee height: 399 km
apogee height: 417 km
right ascension of ascending node: 306.6744°
argument of perigee: 285.4434°
revolutions per day: 15.52941032
mean anomaly at epoch: 74.5321°
orbit number at epoch: 72672

The dashed part of the orbit path shows where the satellite is in the earth's shadow,  

DLR